Location: Gajan
(43.0218°N, 1.1244°E)
Time: 09:01:32
(UTC+00:00)

N. Korean satellite - Pass Details

Date: 05 October 2021
Orbit: 450 x 495 km, 97.3° (Epoch: 15 October)

Event Time Altitude Azimuth Distance (km) Brightness Sun altitude
Rises 05:05:57 0° 14° (NNE) 2,562 10.5 -10.2°
Reaches altitude 10° 05:08:01 10° 17° (NNE) 1,683 9.6 -9.8°
Maximum altitude 05:11:38 69° 101° (E) 529 7.0 -9.2°
Drops below altitude 10° 05:15:15 10° 185° (S) 1,685 9.2 -8.5°
Sets 05:17:20 0° 188° (S) 2,565 10.1 -8.2°
